Location: Pasadena, ca
(34.1243°N, 118.1037°W)
Time: 14:28:31
(UTC-08:00)

Vanguard 2 - Visible Passes

Search period start: 12 November 2018 00:00
Search period end: 22 November 2018 00:00
Orbit: 553 x 2938 km, 32.9° (Epoch: 12 November)

Date Brightness Start Highest point End Pass type
(mag) Time Alt. Az. Time Alt. Az. Time Alt. Az.
12 Nov 11.2 02:46:22 18° S 02:57:19 34° SE 03:10:57 10° E visible
12 Nov 10.5 04:51:33 10° SW 05:09:09 64° SSE 05:22:27 10° E visible
13 Nov 11.7 01:03:05 15° SE 01:04:22 15° SE 01:12:36 10° ESE visible
13 Nov 10.9 03:04:36 23° SSW 03:15:14 42° SSE 03:29:45 10° E visible
13 Nov 10.4 05:09:30 10° WSW 05:27:22 72° SSE 05:40:38 10° E visible
14 Nov 11.4 01:21:07 22° SE 01:22:05 22° SE 01:33:44 10° E visible
14 Nov 10.7 03:22:36 27° SSW 03:33:14 51° SSE 03:48:16 10° E visible
14 Nov 10.3 05:27:39 10° WSW 05:45:38 78° SSE 05:58:46 10° E visible
15 Nov 11.2 01:38:56 29° SE 01:39:48 29° SE 01:53:30 10° E visible
15 Nov 10.5 03:40:26 29° SW 03:51:18 60° SSE 04:06:37 10° E visible
15 Nov 10.3 05:45:57 10° WSW 06:03:58 83° S 06:16:55 10° E visible
16 Nov 10.9 01:56:36 37° SSE 01:57:32 37° SE 02:12:37 10° E visible
16 Nov 10.4 03:58:05 29° SW 04:09:27 68° SSE 04:24:55 10° E visible
17 Nov 11.9 00:12:40 12° ESE 00:12:40 12° ESE 00:14:07 10° E visible
17 Nov 10.7 02:14:07 46° SSE 02:15:21 46° SE 02:31:22 10° E visible
17 Nov 10.3 04:15:35 27° WSW 04:27:42 76° SSE 04:43:09 10° E visible
18 Nov 11.6 00:30:04 17° ESE 00:30:04 17° ESE 00:34:48 10° E visible
18 Nov 10.5 02:31:30 54° SSE 02:33:16 55° SSE 02:49:53 10° E visible
18 Nov 10.3 04:32:57 25° WSW 04:46:02 81° SSE 05:01:21 10° E visible
19 Nov 11.4 00:47:21 24° ESE 00:47:21 24° ESE 00:54:25 10° E visible
19 Nov 10.3 02:48:47 60° S 02:51:18 64° SSE 03:08:16 10° E visible
19 Nov 10.3 04:50:13 21° WSW 05:04:25 85° S 05:19:34 10° E visible
20 Nov 11.2 01:04:32 30° ESE 01:04:32 30° ESE 01:13:27 10° E visible
20 Nov 10.2 03:05:58 62° SSW 03:09:27 72° SSE 03:26:36 10° E visible
20 Nov 10.3 05:07:24 18° W 05:22:50 86° S 05:37:47 10° E visible
21 Nov 11.0 01:21:38 38° ESE 01:21:38 38° ESE 01:32:10 10° E visible
21 Nov 10.2 03:23:04 59° SW 03:27:43 78° SSE 03:44:54 10° E visible
21 Nov 10.3 05:24:29 14° W 05:41:16 85° S 05:55:57 10° E visible
